COSMOS 2251 DEB, 38479

Orbit data source: Space-Track

COSMOS 2251 DEB, 38479 is space debris in LEO originally from a launch on Wed, 16 Jun 1993 UTC launched from the Plesetsk Missile And Space Complex (PKMTR). The debris from Iridium 33, an American commercial communications satellite, has been tracked extensively since its accidental collision with the defunct Russian satellite Cosmos 2251 in 2009. This event, occurring at high speed in low Earth orbit (LEO), generated thousands of pieces of space debris, significantly increasing the risk of further collisions. The Iridium 33 debris cloud has impacted space traffic management and orbital debris mitigation strategies, making it a subject of ongoing study in space situational awareness.

Loading next visibility...
Identifier
38479, 1993-036BTP
Orbit
LEO
Country
Flag of CISCIS
Related business
Manufacturer
Unknown
Mission
Spacecraft
Bus & Motor
Unknown
Mass
Unknown
Launch date (UTC)
1993-06-16 (33 years ago)
Launch vehicle
Unknown
Launch site
Plesetsk Missile And Space Complex (PKMTR)
Object type
Payload
Rocket body
Debris
Shape & HBR
Unknown shape, 0.1 m
Radar Cross Section
Small (<0.1 m²)

Expand to show TLE details & history
Last TLE update: 19 hours ago

TLE from 19 hours ago
0 COSMOS 2251 DEB
1 38479U 93036BTP 26123.71072456  .00003678  00000-0  11339-2 0  9991
2 38479  74.0064 281.8002 0081817 359.0513  18.1531 14.39850421667304
Epoch: 2026-05-03T17:03Z
TLE epoch observation values (Epoch: 2026-05-03T17:03:26.601Z)
Latitude
16.79343°
Longitude
169.26458°
Altitude
705.526 km
Speed
7.534 km/s
True Right ascension
19h 06m 56s
True Declination
16° 41' 52"
Sunlit
Object was in daylight at epoch
Visualization orbit readout
Latitude
Unknown
Longitude
Unknown
Altitude
Unknown
Speed
Unknown
Apparent Right ascension
Unknown
Apparent Declination
Unknown
Sunlit
N/A
Visualization observer readout
Local Sidereal Time
19:52:59
Azimuth
Unknown
Elevation
Unknown
Doppler factor
Unknown
Orbital elements
Apogee altitude
814.989 km
Perigee altitude
698.24 km
Semi-major axis
7,134.752 km
Eccentricity
0.00818
Inclination
74.0064°
RAAN
281.8002°
Arg. of periapsis
359.0513°
True anomaly
18.44807°
Mean anomaly
18.1531°
Eccentric anomaly
18.30029°
Mean motion
3.60143 °/min
Orbital period
99.96 mins
BSTAR
0.0011339
Loading maneuver chart data...
Computing Atmospheric mass density...

Documentation

Showing up to 5 results
|